Torna al catalogo

RASSVET-3 22

AttivoPO
NORAD 100088·PAYLOAD·🇷🇺 Russia

Lanciato Jul 19, 2026 da Plesetsk Cosmodrome

Loading…

Prossimi Passaggi (prossime 24 ore)

TLE

AggiornatoSource: Space-Track

Epoca: Sep 14, 2026, 13:29 UTC

1 A0088U 26165F   26257.56190566 -.00275143  00000-0 -55265-2 0  9995
2 A0088  82.2997 168.1463 0007503 167.2989 192.8451 15.47632033  8924

Traccia RASSVET-3 22 in tempo reale con AllMySat

Download on the App Store